Theta_e
311 313 314 315 315 316 315 314 314 314 313 311 312 313 313 313 313 313 313 313 311 309 311 311 312 312 312 312 313 313 313 313 314 314 313 313 313 314 314 314 313 312 311 312 312 312 312 312 312 312 312 312 312 312 312 311 311 311 311 312 312 312 312 312 312 312 312 312 312 312 313 313 313 313 313 313 314 314 314 314 314 314 314 313 312 310
310 314 314 315 315 314 313 313 312 312 311 311 312 313 313 313 313 313 313 313 311 309 311 311 311 312 312 312 313 313 313 313 314 314 314 314 314 314 314 313 311 311 311 312 312 312 313 313 313 313 312 312 312 312 312 312 311 311 310 311 311 311 311 311 311 311 311 311 311 312 312 312 312 313 313 313 313 313 314 314 314 314 314 314 313 310
312 314 314 314 314 312 310 309 310 310 311 312 312 313 313 313 313 313 312 311 309 309 311 311 311 311 311 312 313 313 313 313 314 314 314 314 315 314 313 312 311 311 311 312 312 313 313 313 313 313 313 313 313 312 312 312 311 311 310 310 310 310 310 310 310 310 310 310 310 311 311 311 311 312 312 312 312 313 313 313 314 314 314 314 314 312
315 314 313 314 313 311 310 309 309 310 311 312 313 313 313 313 314 313 312 310 308 309 310 310 311 312 313 313 313 314 313 313 314 313 314 314 313 312 311 311 311 311 311 311 312 313 313 313 313 313 313 313 313 313 313 312 312 312 311 310 310 309 309 309 309 309 309 309 309 309 310 310 310 310 311 311 311 312 312 313 313 313 314 314 314 313
316 313 310 311 311 310 311 311 310 311 312 313 313 313 313 314 314 313 312 311 310 311 310 310 313 314 315 315 315 314 313 312 314 314 314 313 311 311 311 310 310 311 311 311 311 312 313 313 313 313 313 312 312 313 313 313 312 312 311 311 311 310 310 309 309 309 308 309 309 309 309 309 309 309 309 310 310 310 311 311 312 313 313 314 314 314
315 312 309 310 311 310 311 311 312 312 313 314 314 313 313 313 313 313 313 312 312 313 311 310 315 316 315 315 315 316 314 314 315 315 313 312 311 311 311 310 310 311 311 310 310 310 311 312 313 313 313 313 312 312 313 313 313 312 311 311 311 311 310 310 310 309 308 308 308 308 309 309 309 309 310 310 310 310 310 311 311 311 312 312 313 313
312 309 308 311 312 311 311 311 313 313 312 314 315 314 312 312 313 313 313 312 313 314 311 310 313 315 315 315 315 315 314 315 317 316 314 312 311 311 310 310 311 310 310 309 309 309 310 310 311 312 312 312 311 312 313 313 313 313 312 311 311 310 310 310 310 309 309 308 308 308 308 308 309 309 309 310 310 310 310 310 310 310 310 311 311 312
311 309 308 310 312 312 312 312 313 312 312 314 314 313 313 312 313 312 311 312 312 312 311 310 312 314 315 315 314 314 314 316 317 316 314 311 310 310 310 310 310 309 308 308 308 308 308 308 308 309 309 310 311 313 313 312 312 312 312 312 311 310 310 310 309 309 308 308 308 308 308 308 308 308 308 308 309 309 309 309 309 309 309 309 310 310
310 311 311 311 311 311 312 314 314 311 312 313 310 309 310 310 311 311 311 311 310 310 312 312 312 314 317 315 312 312 314 316 317 314 311 310 310 310 310 310 309 308 307 307 307 307 306 306 306 306 307 309 312 312 312 312 311 311 312 312 312 311 311 310 309 308 308 307 307 307 307 307 307 307 307 307 307 308 308 308 308 308 308 308 308 309
310 310 310 312 312 312 313 313 312 312 312 311 308 309 310 309 309 309 310 311 310 311 314 313 312 315 318 317 314 313 313 315 315 311 309 310 310 309 310 309 307 306 306 306 306 305 306 307 307 307 309 311 312 312 312 312 311 311 311 311 311 311 311 311 309 308 307 307 306 306 306 306 306 306 306 306 306 306 307 307 307 307 307 307 308 308
309 306 307 310 312 311 312 309 307 311 311 308 309 311 311 310 308 308 309 310 311 315 316 314 314 315 318 318 316 315 314 313 313 311 309 309 309 309 308 307 306 305 305 305 305 306 307 308 308 310 311 311 311 311 312 312 312 311 311 310 310 310 310 311 310 308 307 306 306 305 305 305 305 305 305 305 305 305 306 306 306 306 306 307 307 307
308 307 308 309 309 308 310 309 305 306 306 308 310 311 312 312 311 311 310 310 314 319 316 312 313 314 317 317 314 313 313 311 311 311 311 310 309 308 307 306 304 304 304 305 305 306 307 308 309 310 310 310 310 310 310 311 311 311 311 310 310 310 309 310 309 308 307 306 305 305 305 305 304 304 304 305 304 304 305 305 305 305 305 306 306 306
311 311 310 309 308 307 310 311 307 306 306 309 310 310 313 315 316 317 316 314 317 318 312 308 311 313 315 316 314 314 316 313 311 311 310 309 308 307 306 304 303 302 304 305 305 305 305 306 307 308 308 308 309 309 309 309 310 310 310 310 310 309 308 308 308 308 308 306 305 304 303 303 303 303 303 304 304 304 304 304 304 304 304 304 305 305
316 314 310 309 310 309 310 311 312 311 308 309 310 312 315 317 318 320 319 317 318 316 309 306 310 313 314 315 314 314 315 312 310 308 307 307 307 306 304 303 301 301 302 303 303 303 303 304 305 305 306 306 306 307 307 308 308 308 308 308 308 308 307 307 307 307 308 307 306 304 303 303 302 302 302 302 303 303 303 303 303 303 303 304 304 304
318 317 313 313 314 310 309 312 315 315 310 308 311 312 315 317 319 320 321 320 321 320 312 309 312 315 316 315 312 312 314 311 308 306 305 306 305 304 302 301 300 301 301 301 301 301 302 303 303 303 303 304 304 304 305 306 306 306 306 307 307 307 307 307 307 306 306 306 305 305 304 304 302 302 301 302 302 302 302 303 303 303 303 303 303 303
316 318 316 313 311 309 310 312 313 314 312 309 310 311 313 315 317 318 319 319 319 319 316 313 315 316 316 315 313 314 313 309 306 306 305 305 304 302 301 299 299 299 299 300 300 300 301 301 302 302 302 302 302 303 303 304 304 305 305 305 305 306 306 306 306 305 305 304 304 304 305 304 304 302 301 301 301 301 302 302 302 303 303 303 303 303
315 317 317 311 307 308 310 311 311 312 313 310 308 311 313 314 316 315 316 317 316 317 318 317 317 316 316 317 314 312 311 307 306 306 305 305 303 301 299 298 297 297 297 298 299 299 299 299 300 300 300 300 300 300 301 301 302 303 303 304 305 304 304 305 305 305 304 304 304 304 304 304 304 303 302 301 300 300 300 301 301 302 302 302 302 302
317 318 317 313 312 309 305 307 310 309 310 310 310 313 313 312 312 312 314 316 316 317 319 320 319 317 318 317 312 310 311 309 307 305 304 303 301 300 298 297 296 295 295 296 296 297 297 297 297 297 297 298 298 299 299 300 300 300 301 302 302 302 302 303 303 304 304 304 304 303 303 303 303 303 302 302 301 300 299 299 300 301 301 301 301 301
316 317 317 315 315 310 304 306 310 308 308 310 310 310 311 313 313 312 314 315 317 318 318 318 318 317 318 317 314 314 313 311 307 304 302 300 300 299 297 296 295 294 294 294 295 295 295 295 295 296 296 297 297 298 299 299 299 300 300 301 301 301 301 301 302 303 303 303 303 303 303 303 303 302 302 302 301 301 300 299 299 300 300 300 300 300
314 315 318 316 313 309 307 308 311 311 309 307 307 308 309 311 313 313 313 314 316 318 318 318 319 318 317 317 316 314 312 310 308 303 300 298 298 297 296 295 294 294 294 294 294 294 294 294 295 295 295 296 296 296 297 297 298 298 299 299 300 301 301 302 302 301 301 301 302 302 302 302 302 302 302 302 301 301 301 300 299 300 300 301 300 300
312 313 315 316 313 311 310 311 312 313 311 309 309 309 309 309 310 311 312 313 315 317 317 319 319 318 318 316 314 311 308 307 306 302 299 297 296 295 294 294 293 293 293 293 293 293 294 294 294 295 295 295 295 296 296 296 296 296 297 297 298 298 299 300 300 300 300 299 299 300 301 302 302 302 302 302 301 301 301 301 300 300 301 301 301 301
312 313 314 315 314 313 313 313 312 313 313 312 310 311 311 311 311 312 314 314 314 315 316 318 317 319 318 314 310 307 305 304 303 300 298 296 295 295 294 293 293 292 292 293 293 294 294 295 295 295 295 295 295 295 295 295 295 296 296 296 296 296 297 297 297 298 298 298 298 297 298 299 301 301 302 302 302 301 302 301 301 300 300 301 301 300
310 311 313 313 313 313 314 314 312 311 312 312 312 312 312 312 311 313 315 316 315 314 315 315 316 319 316 308 305 303 301 301 300 299 297 296 295 294 293 293 292 292 293 293 294 294 295 295 295 296 296 295 295 295 296 296 296 295 295 295 295 295 295 295 296 296 296 297 297 297 297 298 298 299 300 301 301 301 301 301 301 300 300 300 300 300
308 309 312 313 313 313 313 313 312 310 310 312 313 312 312 312 313 314 314 314 314 315 316 315 316 318 313 304 301 300 298 298 298 297 297 296 294 294 293 292 292 293 293 294 294 295 295 295 295 295 295 295 296 296 296 296 296 295 295 295 295 294 294 294 294 294 295 295 296 296 297 297 297 297 298 299 300 300 300 301 301 300 300 299 299 298
310 311 313 314 315 314 314 314 313 311 310 311 312 311 312 312 313 313 312 311 311 313 315 314 315 317 312 303 301 300 298 297 297 296 296 295 295 294 293 292 292 292 293 293 293 294 294 294 294 295 295 295 296 296 296 296 296 296 295 294 294 294 293 293 293 293 293 294 294 295 295 295 296 297 296 297 297 298 299 299 300 300 300 299 299 298
310 311 312 313 315 315 314 314 313 311 310 310 310 310 311 311 311 312 312 312 312 313 313 313 313 313 311 306 304 304 301 298 296 295 295 294 294 293 292 292 292 292 292 292 293 293 293 294 294 294 294 294 295 295 295 295 296 295 295 295 294 294 293 293 292 292 292 292 292 293 293 293 294 295 295 296 296 296 296 297 298 298 299 299 299 298
308 309 311 312 312 313 312 312 312 311 310 310 311 311 311 311 310 310 310 312 313 313 312 312 313 313 312 311 310 310 308 304 298 296 295 294 293 293 292 292 291 291 291 291 291 291 291 292 292 292 292 293 293 293 293 293 293 293 294 294 294 294 293 293 293 292 291 290 290 290 291 292 292 292 293 294 294 295 295 295 296 296 297 298 298 298
307 308 309 310 310 310 310 310 310 310 309 309 309 309 310 310 309 309 309 309 310 310 310 310 311 311 311 311 311 311 310 305 299 296 295 294 294 293 292 292 291 291 291 290 290 290 290 290 290 290 290 291 291 291 291 291 291 291 291 291 291 291 291 292 292 291 291 290 289 289 289 289 290 290 290 291 292 293 294 294 295 295 295 296 296 297
306 306 307 308 307 307 307 307 307 307 306 306 306 307 307 307 308 308 308 307 307 308 308 307 308 308 308 308 309 307 304 302 297 295 295 294 293 293 293 293 292 291 291 291 290 290 289 289 289 289 289 289 289 289 289 289 289 290 290 290 290 290 289 289 289 289 289 289 289 288 288 288 288 288 289 289 289 290 291 292 293 294 294 294 295 295
304 305 305 304 304 305 305 305 305 304 304 304 303 304 304 304 305 305 305 305 305 305 305 305 305 306 305 305 304 301 299 298 296 294 294 294 294 294 293 293 293 291 291 290 290 290 289 289 289 288 288 288 288 288 288 288 288 288 288 288 288 288 288 288 288 288 288 288 288 287 287 287 287 287 287 288 288 288 289 289 290 291 291 292 293 293
303 304 304 302 302 303 302 302 303 302 302 302 301 302 302 302 302 302 302 303 303 303 303 303 303 304 303 301 299 297 296 296 295 294 294 294 294 294 294 294 293 292 291 291 291 290 289 289 289 288 288 288 288 287 287 287 287 287 287 287 287 287 287 287 287 287 287 287 287 287 286 286 286 286 286 286 287 287 287 287 288 288 289 289 290 291
301 302 301 301 301 302 301 301 301 300 300 299 299 299 299 299 300 301 301 302 302 303 302 302 302 302 300 297 296 295 294 294 294 294 293 293 293 293 293 293 293 293 292 291 290 290 289 289 289 288 288 288 287 287 287 287 287 286 286 286 286 286 286 286 286 286 286 286 286 286 286 286 286 286 286 286 286 286 286 286 286 287 287 287 288 288
301 300 300 300 301 301 301 300 299 298 298 298 299 299 299 299 300 300 301 301 301 302 301 301 300 299 297 296 296 295 294 293 293 293 293 292 293 293 293 292 293 293 292 290 289 289 289 289 288 288 288 288 288 287 287 287 287 286 286 286 286 286 286 286 286 286 286 286 286 286 286 286 286 286 286 286 286 286 286 286 286 286 286 286 286 287
299 299 299 299 300 299 299 298 297 297 298 298 299 299 298 298 299 298 298 298 299 299 299 298 297 296 295 295 295 294 293 293 292 292 292 292 292 292 292 291 291 292 292 290 289 289 289 288 288 288 288 288 288 288 287 287 287 287 286 286 286 286 286 286 286 286 286 286 286 286 286 286 286 286 286 286 286 286 286 286 286 286 286 286 286 286
298 298 298 298 298 298 297 296 296 297 297 296 297 298 297 297 297 297 297 297 298 298 297 297 296 295 295 294 293 293 292 292 291 291 291 291 291 291 291 291 291 291 292 290 289 289 289 288 288 288 288 288 288 288 288 288 287 287 287 286 286 286 286 286 286 286 285 285 286 286 286 286 286 286 286 286 286 286 286 286 285 285 285 285 285 285
296 297 297 297 297 296 296 296 297 297 295 294 295 296 296 295 296 296 297 297 297 297 297 297 295 294 295 294 293 293 292 292 292 292 291 291 291 290 290 291 291 291 291 290 289 289 289 289 288 288 288 288 288 288 288 288 287 287 287 287 286 286 286 286 285 285 285 285 285 285 285 285 285 285 285 285 285 285 285 285 285 285 285 285 285 285
296 296 296 296 296 296 295 295 296 295 295 295 295 295 295 295 296 296 297 297 297 296 297 297 295 294 294 294 293 292 292 292 292 292 292 291 291 290 290 290 290 291 290 290 289 289 289 289 289 289 288 288 288 288 288 288 287 287 286 286 286 286 286 286 286 285 285 285 284 284 285 285 285 285 285 285 285 285 285 285 285 285 285 285 285 285
295 296 296 295 296 296 295 295 295 294 294 295 294 295 295 294 295 295 296 296 296 295 294 295 295 294 294 293 292 292 293 292 292 292 292 291 290 290 290 290 290 290 290 290 289 289 289 289 289 289 289 289 289 288 288 288 287 286 286 286 286 286 286 286 286 285 285 285 284 284 284 284 284 284 284 285 285 285 285 285 285 285 285 285 285 285
293 294 295 295 295 295 295 295 295 295 295 295 295 294 294 293 294 295 295 295 295 293 292 292 293 294 293 293 293 293 292 291 291 291 292 291 290 290 289 289 289 290 290 290 290 289 289 289 289 289 289 289 289 288 288 287 287 286 286 286 286 286 286 286 285 285 285 284 284 284 284 284 284 284 284 284 284 284 284 284 284 285 285 284 285 285
292 293 294 294 294 295 294 295 295 294 295 295 294 294 293 293 293 294 295 294 292 291 292 291 291 292 292 292 292 293 292 291 290 291 291 290 290 289 289 289 289 289 289 290 290 290 290 289 289 289 289 289 288 288 287 286 286 286 286 286 285 285 285 285 284 284 284 284 284 284 284 283 283 283 283 283 283 283 283 284 284 284 284 284 284 284
291 292 293 294 294 294 294 295 294 294 295 295 295 294 293 293 293 294 294 292 290 291 291 291 290 290 290 290 291 292 291 291 291 291 290 290 290 289 289 289 289 289 289 289 289 290 290 289 289 289 289 288 287 287 286 285 285 285 285 285 285 285 285 284 283 283 283 282 282 282 283 283 283 283 283 283 283 283 283 283 283 283 283 284 284 284
290 290 291 292 293 293 293 294 293 293 294 295 295 293 292 293 294 294 292 291 290 290 290 290 290 290 290 290 290 290 290 290 290 290 289 289 289 289 289 289 289 289 289 289 289 289 289 289 288 288 288 287 287 286 285 284 284 284 284 284 284 284 284 283 282 282 282 282 282 282 282 282 282 282 282 282 282 282 282 283 283 283 283 283 283 284
291 290 290 291 292 292 292 293 292 292 293 293 292 292 292 293 294 293 291 291 291 291 290 290 289 289 289 289 290 290 290 289 289 289 289 289 288 288 288 288 288 288 288 288 288 288 288 287 287 287 287 287 286 285 284 283 283 283 283 283 283 283 281 281 281 281 281 281 281 281 282 281 281 281 281 281 281 281 282 282 282 282 283 283 283 283
291 291 291 291 292 291 291 292 292 292 292 291 291 292 292 292 292 291 291 291 291 290 290 290 290 290 289 289 289 289 289 289 288 288 288 288 288 288 288 288 288 288 288 288 287 287 286 286 286 286 286 286 285 284 283 282 281 281 282 282 281 280 279 279 279 279 280 280 281 281 281 281 281 281 280 280 280 280 280 282 282 282 282 282 282 282
292 292 291 291 292 291 291 291 292 292 291 291 291 291 291 291 291 291 290 290 290 290 290 290 290 290 289 289 288 288 288 288 288 288 288 288 288 288 287 287 287 287 287 286 286 285 285 284 284 285 285 285 285 284 283 281 280 279 279 279 278 277 277 276 276 277 278 278 279 280 280 279 279 279 279 278 278 277 278 280 280 280 281 281 281 281
292 292 291 291 291 291 291 292 292 291 291 291 291 291 291 291 291 290 290 290 290 290 290 290 289 289 289 288 288 287 287 287 287 287 287 287 287 287 286 286 286 286 285 285 284 284 284 284 284 284 284 284 284 282 282 281 279 277 276 276 275 274 274 273 273 274 275 276 276 277 277 276 276 277 276 276 275 275 276 277 277 278 279 279 279 279
291 291 290 290 290 290 290 291 291 291 291 291 291 291 291 290 290 290 290 290 290 290 289 289 289 288 288 288 287 287 287 287 286 286 286 286 285 285 285 285 284 284 284 283 283 283 282 282 282 282 282 282 282 281 281 280 277 275 273 272 272 272 271 271 271 271 271 272 272 273 272 272 272 272 273 273 273 272 273 274 273 273 275 276 277 277
291 290 290 290 290 290 290 290 291 291 291 291 290 290 290 290 290 290 290 290 290 289 289 289 288 288 287 287 286 286 286 285 285 285 285 284 284 283 283 283 283 282 282 282 281 281 281 280 280 280 280 280 280 279 278 277 276 274 272 272 271 271 271 271 270 270 270 270 270 270 269 269 268 269 269 270 270 270 270 271 271 270 271 273 273 273
290 290 289 289 290 290 290 291 291 291 291 291 291 290 290 290 290 290 290 289 289 289 289 288 287 287 286 286 286 285 285 284 283 283 283 283 282 282 282 281 281 281 280 280 280 280 279 278 278 278 277 277 277 276 275 274 274 273 272 271 270 270 269 269 269 268 268 268 267 267 267 266 266 266 266 267 268 268 268 269 269 269 270 271 272 271
290 290 289 289 289 290 290 290 291 290 290 291 291 290 290 289 289 289 289 289 288 288 288 287 287 286 285 285 284 283 283 283 282 282 282 281 281 280 280 280 279 279 279 279 279 279 278 276 275 275 275 275 274 273 273 272 272 271 271 270 269 267 266 265 265 264 264 264 263 263 263 263 263 263 263 264 265 265 266 267 268 268 269 270 271 271
291 290 290 290 290 290 291 291 291 290 290 291 290 290 289 289 288 288 288 288 287 287 287 286 286 285 284 284 283 282 282 282 281 281 280 280 279 279 279 278 279 279 279 278 277 276 276 275 274 273 274 273 273 272 272 271 271 270 269 268 266 265 263 262 262 261 261 261 261 261 262 262 262 262 262 262 263 263 264 265 266 267 267 268 269 270
Wind_Speed
7 6 6 7 9 11 12 13 16 11 5 6 6 8 10 11 12 13 15 11 2 6 11 13 19 19 17 16 15 22 25 24 28 27 24 23 25 28 22 11 7 9 15 17 16 11 10 12 14 14 13 10 8 7 9 12 13 14 15 17 19 21 24 26 30 32 35 37 39 41 42 43 44 46 48 49 51 51 52 52 51 51 51 50 50 49
5 7 7 11 13 9 5 6 9 9 8 10 9 10 10 10 13 13 14 13 2 3 8 9 17 18 17 19 19 24 22 20 24 21 21 26 27 19 7 7 9 15 16 12 12 14 17 18 19 18 17 17 14 10 7 9 11 13 14 16 18 20 22 24 27 30 32 35 37 38 39 40 41 44 46 48 50 51 52 53 53 53 52 52 51 50
5 7 10 16 12 1 1 1 3 8 10 11 8 8 9 8 12 11 10 10 2 2 8 11 15 15 17 22 21 19 16 19 23 21 24 26 19 11 8 9 13 14 10 14 18 21 21 20 19 19 20 21 19 16 12 9 9 11 14 16 17 20 21 22 25 26 28 31 33 35 36 38 39 41 44 46 49 50 52 53 53 54 54 54 53 51
5 6 10 15 9 3 6 4 3 7 8 9 8 7 9 8 9 8 5 1 1 4 10 13 14 13 15 16 12 11 12 15 21 24 24 16 9 10 9 9 8 8 12 16 20 22 21 21 21 21 23 23 22 21 18 15 10 9 12 14 16 18 20 21 23 23 25 28 30 32 34 36 38 39 41 43 46 48 50 52 53 54 54 54 53 52
8 1 1 5 5 8 11 6 6 8 8 9 9 7 11 12 11 12 6 5 7 7 5 10 12 7 5 2 1 3 5 7 19 20 7 5 9 10 10 10 11 13 16 19 22 23 23 23 23 24 25 25 25 25 24 21 16 11 9 10 13 16 18 20 21 21 23 26 27 29 31 34 36 38 40 42 43 46 48 50 52 53 53 54 53 53
9 1 2 2 2 5 8 7 9 9 8 8 8 11 16 16 14 15 11 8 8 5 1 7 10 3 1 1 4 6 3 7 17 10 8 11 10 13 15 16 16 17 20 22 23 23 23 24 24 25 26 27 28 28 27 25 22 16 10 7 8 11 14 16 17 18 21 23 25 27 29 32 34 36 37 39 41 42 44 45 47 49 50 51 52 52
4 1 1 3 3 4 5 8 9 8 8 8 3 6 12 13 13 12 9 6 5 4 1 2 6 6 4 4 6 6 6 11 14 3 10 8 8 12 15 18 19 19 22 22 22 23 24 24 24 24 26 28 29 28 27 26 25 22 16 11 7 7 9 11 13 15 18 21 23 26 28 30 31 32 34 34 35 37 38 39 42 44 45 47 49 51
3 2 2 2 5 5 6 8 6 9 7 5 2 2 4 7 8 5 5 5 5 6 3 3 4 8 7 4 3 4 8 13 12 3 9 9 11 12 13 18 21 22 22 22 23 23 23 24 25 26 26 28 29 28 27 26 25 24 21 16 11 8 8 8 10 12 15 18 21 23 25 28 30 31 32 33 32 32 34 35 37 39 40 42 45 48
3 4 4 6 5 5 7 4 5 10 7 2 3 2 1 1 3 2 4 5 4 6 4 4 5 6 8 2 3 3 7 9 6 7 11 10 12 11 11 18 23 23 21 21 23 23 23 25 28 29 29 30 30 29 28 27 26 25 23 20 16 11 8 7 8 10 12 14 18 21 23 25 27 29 31 33 33 32 33 33 34 35 36 38 40 43
1 2 4 6 5 6 5 1 4 11 6 1 4 3 4 2 2 1 3 4 3 7 6 6 8 7 9 2 4 2 3 3 4 9 11 9 8 8 11 18 21 20 20 21 22 23 25 27 28 29 29 29 29 28 28 27 27 27 26 24 21 16 11 7 7 8 9 11 14 18 21 23 25 27 29 31 32 33 33 33 33 33 34 34 35 38
0 2 1 4 7 4 3 3 1 3 2 3 4 1 1 2 1 0 2 2 4 9 6 9 13 9 6 1 2 1 1 0 3 6 8 8 7 9 15 18 18 19 21 21 22 24 25 26 26 27 28 28 28 27 27 27 28 28 28 27 25 22 17 11 7 6 7 9 12 14 17 20 22 25 28 29 31 33 33 32 32 32 32 32 32 34
2 3 2 4 7 2 5 2 2 3 2 2 2 1 2 2 0 1 1 1 5 7 2 2 5 8 8 2 1 1 2 2 2 2 3 8 9 11 15 17 18 20 22 22 24 25 25 26 26 27 28 28 27 27 28 28 28 28 29 29 28 26 23 18 13 8 6 6 9 12 14 16 19 23 25 27 29 31 32 32 33 32 31 31 31 31
3 5 3 2 4 6 5 2 2 2 1 3 3 1 2 2 1 2 2 2 6 5 2 3 2 6 10 5 5 10 9 2 2 4 7 11 11 11 15 17 21 23 23 24 26 26 27 28 29 28 28 27 27 28 28 27 28 28 28 28 28 28 26 24 20 16 11 8 8 10 12 14 17 20 23 25 27 29 30 30 31 32 32 31 30 29
3 2 4 2 3 8 10 5 3 3 4 6 5 4 3 1 1 3 3 3 5 2 2 2 1 5 7 6 8 12 10 5 8 9 11 13 11 13 17 19 22 25 25 25 25 26 28 28 29 28 27 26 26 26 26 26 27 27 28 28 28 28 27 26 24 21 17 13 11 11 12 13 16 19 21 24 26 27 28 28 29 30 30 31 30 29
5 5 5 6 2 9 13 8 2 3 4 6 4 3 4 4 4 4 4 4 5 3 1 1 2 4 4 1 3 5 7 5 11 12 15 16 14 16 20 21 22 24 24 25 25 26 26 26 26 25 25 25 25 25 25 25 26 26 27 28 28 28 28 27 26 24 21 17 14 13 13 13 15 17 20 23 25 26 26 26 27 28 29 29 29 29
5 7 3 3 1 9 11 5 3 4 2 2 2 2 4 5 5 4 4 3 2 4 3 3 3 5 5 5 5 7 3 10 17 16 17 17 14 17 20 20 20 22 23 24 24 25 25 24 23 23 23 23 23 23 24 24 24 25 25 26 26 27 27 27 26 26 24 22 18 16 14 14 15 16 18 21 23 24 25 25 26 26 27 28 28 28
4 5 3 4 1 6 6 3 3 3 1 3 3 4 2 1 3 4 4 1 1 5 5 4 6 7 7 9 5 2 8 14 15 13 15 13 12 15 17 16 17 21 22 23 24 23 23 22 22 22 22 22 22 23 24 24 24 24 24 24 24 25 25 25 25 25 25 25 23 22 19 15 14 15 16 18 20 21 23 24 24 25 26 27 27 28
5 6 2 5 5 5 3 1 1 1 1 4 4 3 1 1 1 3 3 1 3 7 5 5 10 10 7 6 2 11 12 10 10 10 11 9 10 13 13 12 15 18 21 22 22 22 22 22 22 21 22 22 22 22 22 22 23 23 23 23 23 23 24 24 25 25 25 25 25 24 23 20 16 14 15 16 18 19 20 21 22 24 25 26 27 28
2 6 4 4 4 1 2 2 2 2 2 1 1 1 0 2 3 3 3 3 6 8 5 8 12 10 7 7 4 5 7 8 9 9 7 8 9 10 10 10 13 17 19 21 21 21 22 22 21 21 21 21 21 21 20 20 20 20 21 21 22 22 23 24 25 25 24 24 25 25 24 23 21 19 17 15 16 17 17 17 19 21 23 24 25 27
0 5 5 1 0 2 3 3 4 4 2 1 1 2 1 2 4 3 2 2 5 9 8 8 10 8 7 9 8 2 5 6 7 7 7 7 8 8 8 8 11 15 17 18 19 19 20 20 21 21 21 21 21 22 21 21 21 21 21 21 21 21 21 22 23 23 24 23 23 23 23 23 23 22 21 19 17 17 16 16 16 18 20 21 23 24
1 4 5 1 0 2 4 5 6 6 5 3 4 4 3 2 2 3 3 3 5 8 8 9 9 6 4 4 1 5 6 5 6 7 6 7 8 8 8 9 10 13 15 16 16 17 18 19 20 21 22 22 22 23 23 23 24 24 23 23 23 22 21 20 20 21 22 23 23 22 22 22 22 22 22 21 21 20 19 18 17 17 18 20 21 21
2 3 5 4 4 6 7 3 4 6 4 4 6 7 7 6 3 5 7 6 6 6 5 7 8 5 1 3 6 8 6 6 7 8 8 7 7 6 7 10 11 11 13 15 15 16 17 18 19 20 22 22 23 24 24 25 25 25 25 25 24 23 22 21 20 19 19 21 23 23 22 22 21 21 22 22 22 22 22 21 20 18 18 19 20 20
1 1 5 8 7 11 12 2 3 2 2 2 5 5 4 5 6 8 8 5 6 5 3 7 9 4 3 6 7 7 7 8 8 9 10 8 7 6 6 8 11 12 13 14 14 15 16 17 18 19 20 21 22 23 24 25 25 26 26 26 25 25 24 23 22 20 19 18 19 21 22 23 22 22 21 22 22 23 23 23 23 22 20 20 20 20
2 1 4 7 7 9 12 5 3 2 1 4 6 3 3 5 6 6 5 3 3 4 5 8 8 3 2 4 7 9 10 10 8 9 10 10 8 7 6 8 10 11 12 13 13 14 15 16 17 18 19 19 21 22 23 24 24 25 25 25 25 25 25 24 23 22 21 20 19 19 20 21 22 22 22 21 22 22 23 24 24 24 24 23 22 21
2 2 3 5 6 6 9 8 3 2 1 2 4 3 4 6 7 8 5 3 4 8 10 10 8 4 1 3 6 9 9 9 8 7 8 9 8 7 7 9 10 11 11 12 12 13 13 14 15 16 17 18 19 20 22 23 24 24 25 25 26 25 25 24 24 24 23 23 22 21 20 19 19 21 21 21 21 22 22 23 24 25 25 25 24 23
1 2 2 4 7 6 7 7 2 1 2 3 3 4 6 6 6 7 7 7 7 7 10 10 9 5 2 3 3 4 5 6 7 7 7 8 7 7 8 8 9 9 9 10 10 10 11 11 12 13 14 16 17 18 19 20 21 22 23 24 26 26 27 27 27 26 25 25 23 22 22 21 20 20 21 21 22 22 22 22 23 24 24 25 25 25
1 2 4 7 9 8 9 8 4 3 4 6 6 6 7 8 7 6 7 8 7 6 7 8 8 9 7 5 7 6 4 2 5 7 6 6 6 6 6 7 8 8 8 9 9 9 10 10 11 11 12 13 14 15 17 18 19 20 21 21 22 23 25 26 28 28 28 28 27 25 24 23 23 22 21 21 21 21 21 21 21 22 24 25 25 26
2 4 7 10 11 11 12 12 9 7 7 9 10 10 10 11 11 10 10 10 9 8 8 8 10 11 10 9 11 10 8 4 2 5 5 5 4 3 2 4 5 5 6 7 8 9 9 9 10 10 11 11 11 12 13 14 16 17 18 19 20 21 22 23 24 26 27 28 28 28 27 25 24 23 23 22 21 21 21 21 21 21 22 23 25 26
3 7 9 9 11 12 13 12 10 7 7 9 11 12 12 13 14 15 15 14 13 12 11 13 16 16 13 15 16 10 3 1 4 4 3 3 3 2 1 2 3 4 5 6 7 7 8 8 9 10 10 10 11 11 11 12 12 13 14 16 17 19 20 22 23 24 26 27 28 28 28 27 26 25 24 24 23 23 23 22 22 22 22 22 23 24
3 6 5 4 8 10 10 11 9 8 8 9 11 12 14 16 17 17 17 17 17 17 17 19 22 22 17 15 11 2 6 5 5 4 2 2 4 5 5 5 5 5 6 7 7 7 7 8 9 10 10 10 11 11 11 12 12 13 14 14 15 16 18 20 22 24 26 27 28 29 29 28 27 26 25 25 25 25 24 24 24 24 23 23 23 23
3 4 2 3 6 8 9 11 11 9 9 10 11 12 16 18 18 17 17 16 16 17 19 20 21 18 10 3 3 6 7 5 4 1 2 4 6 7 8 9 9 8 8 8 8 9 9 9 10 10 11 11 12 12 13 13 13 14 15 15 16 16 17 19 20 22 24 25 27 29 30 31 30 29 28 26 26 25 25 25 25 25 25 25 25 25
3 4 3 4 6 7 7 11 13 10 9 12 13 15 19 19 16 15 15 14 14 16 17 18 16 10 1 4 5 6 5 3 1 3 4 5 6 9 11 13 13 13 11 11 11 11 12 13 13 14 14 15 15 15 16 16 17 17 17 17 17 17 18 19 20 21 22 23 25 26 28 30 32 32 32 31 29 28 27 26 26 25 25 26 26 27
3 4 4 5 6 6 8 11 9 6 8 11 11 13 18 18 17 17 16 15 17 16 14 12 8 2 2 3 4 4 2 1 3 4 5 6 8 10 13 16 17 16 15 15 15 15 15 15 16 17 18 18 18 19 19 19 20 20 20 20 20 20 20 21 22 22 23 24 26 26 27 28 29 31 33 33 33 33 32 31 30 28 27 27 27 27
5 6 7 7 6 7 9 6 4 5 10 8 3 5 10 11 11 14 14 15 15 9 3 2 1 2 4 4 3 2 0 3 6 7 8 10 11 12 15 19 20 19 18 17 17 16 16 17 18 19 20 21 21 22 22 22 23 23 23 23 23 23 23 23 24 24 25 26 27 29 29 30 30 30 31 32 33 34 34 34 33 32 31 30 29 29
7 7 7 7 8 8 6 3 5 10 9 3 3 2 3 3 5 10 14 16 12 4 1 2 3 5 5 3 2 1 3 6 9 11 14 17 17 18 21 23 24 23 21 19 18 18 19 20 21 22 23 23 24 24 25 25 26 26 27 27 26 26 26 26 26 26 27 27 28 30 31 32 33 33 32 32 33 33 34 35 35 35 34 34 33 33
9 7 6 6 7 5 3 7 10 6 4 7 10 5 2 2 6 8 11 11 6 3 4 6 5 5 4 3 2 5 7 9 10 13 18 21 19 19 22 25 25 23 22 21 20 21 23 24 24 25 26 26 27 27 28 28 28 29 30 31 32 31 31 31 31 31 30 30 30 31 32 33 34 34 35 35 34 34 35 35 36 36 36 36 36 36
10 8 5 5 6 4 5 9 9 7 8 9 10 4 1 2 4 4 5 4 2 3 4 4 5 4 3 4 7 8 7 6 8 13 18 19 17 17 20 23 24 24 23 23 23 24 26 27 28 28 29 29 30 30 30 30 30 31 33 34 35 35 36 37 36 36 36 35 35 35 35 35 35 35 36 37 37 36 36 37 37 37 38 38 39 39
10 10 7 6 6 5 6 7 6 8 7 4 3 3 2 2 2 1 3 3 2 4 3 4 4 3 3 7 11 8 3 3 5 10 15 17 17 19 20 22 24 25 26 27 26 26 27 28 29 30 31 32 33 33 33 33 33 34 36 38 38 39 40 41 41 41 41 41 40 39 39 38 37 37 38 38 38 38 38 39 39 39 40 40 41 42
6 9 8 7 7 6 7 8 7 7 5 1 1 3 3 3 2 1 5 5 1 3 5 5 3 5 6 9 11 5 2 4 6 10 17 21 21 22 24 25 26 27 28 30 30 29 28 29 31 32 33 34 35 34 33 34 35 36 39 41 42 43 44 44 44 44 44 45 45 44 43 42 41 41 40 40 40 40 40 41 41 41 42 42 43 45
2 4 6 7 8 8 9 8 7 7 4 2 5 6 4 5 3 3 8 5 2 5 8 8 7 10 10 11 10 4 4 8 10 15 21 23 23 24 25 26 28 30 31 33 34 34 33 31 32 33 34 35 34 34 34 34 36 38 41 43 44 46 47 47 46 46 47 47 47 47 47 46 46 45 45 44 44 43 43 43 44 44 44 44 45 46
1 2 4 7 8 10 11 8 7 7 5 6 12 11 4 5 2 7 8 2 4 8 10 10 12 14 14 14 10 7 10 15 18 23 25 24 25 26 26 26 28 30 32 33 34 36 36 34 33 32 33 33 33 34 35 36 39 41 43 44 47 49 49 48 48 49 49 49 49 49 49 49 49 49 49 49 49 48 48 47 47 47 47 47 47 47
2 1 3 6 6 7 9 8 7 7 5 6 10 6 5 3 5 6 4 6 5 9 11 12 15 16 16 17 14 14 17 20 22 25 25 24 26 28 28 28 29 30 33 34 34 33 34 34 33 32 33 34 35 36 38 40 43 45 46 48 50 51 50 50 50 51 51 52 52 53 53 52 52 52 52 52 52 52 52 51 51 51 50 50 50 50
3 2 4 5 4 4 6 6 7 6 3 4 3 2 5 5 5 7 10 15 16 15 13 12 14 15 15 15 16 18 20 21 22 23 24 25 27 28 28 28 29 31 33 33 31 30 30 31 33 34 36 37 39 41 43 45 47 49 50 52 53 52 50 51 51 51 53 55 55 56 56 56 56 55 56 55 55 55 56 55 54 54 54 53 53 53
3 4 6 4 3 4 6 6 4 3 2 6 5 3 6 9 13 18 19 18 20 21 17 12 15 18 17 15 16 18 19 20 21 22 22 24 27 27 28 29 31 32 33 31 30 30 30 32 35 38 41 42 44 46 47 47 48 49 51 53 52 50 51 51 51 52 54 56 57 58 59 59 59 59 59 58 58 58 59 59 58 58 57 57 56 56
6 9 8 6 4 4 7 7 2 2 7 9 10 14 18 22 27 28 24 20 21 26 24 19 20 24 23 19 18 18 19 20 21 22 23 25 28 29 29 30 31 32 31 31 31 32 34 37 40 43 46 48 49 50 50 49 48 49 51 52 50 49 51 51 51 53 56 57 59 60 61 61 62 62 61 61 60 60 62 62 62 62 61 60 60 60
9 9 5 4 6 6 9 12 8 9 19 25 26 27 27 29 31 32 28 26 26 27 26 23 23 26 25 21 19 19 20 20 21 23 25 27 28 29 29 30 31 31 32 33 35 36 39 41 43 45 48 50 50 51 52 52 49 47 48 48 48 49 49 49 50 53 56 58 60 62 62 62 63 64 64 63 63 63 65 65 64 64 64 63 62 62
11 12 6 5 8 7 9 12 11 13 21 24 24 27 28 28 30 31 30 29 28 27 26 25 24 23 22 20 18 19 20 20 22 24 26 27 28 28 29 31 32 32 34 35 37 38 40 42 44 46 48 50 52 53 54 55 52 50 48 49 50 51 51 52 53 55 58 60 62 63 63 63 64 66 66 67 66 65 66 66 64 64 65 66 64 63
7 7 7 8 11 10 11 16 17 20 25 25 23 26 28 30 32 33 30 28 27 26 25 24 22 20 18 18 18 19 20 21 22 24 26 27 28 29 30 32 33 34 35 36 37 38 40 42 45 47 49 52 54 55 57 57 56 55 53 54 55 55 57 59 59 60 62 64 64 65 65 65 66 66 67 68 67 65 66 67 65 63 65 65 63 61
6 3 5 6 9 10 13 18 20 20 21 23 25 28 30 31 31 30 27 25 24 24 24 22 20 18 18 18 19 20 21 22 22 23 26 27 29 30 31 32 33 34 35 36 38 40 41 44 46 48 51 53 53 53 53 53 52 52 51 51 52 51 53 56 57 57 60 61 61 62 61 60 60 61 61 63 64 64 64 65 63 61 63 64 62 60
8 6 5 5 7 10 11 14 15 12 12 18 21 21 21 22 22 21 21 21 22 23 22 21 20 19 19 19 19 19 21 22 22 24 26 27 28 29 30 32 33 35 37 39 41 43 44 45 46 47 48 48 47 47 48 48 49 49 48 47 46 45 45 47 48 50 51 51 51 51 49 47 48 51 52 54 56 58 60 61 59 57 58 60 60 57
13 13 10 8 10 13 15 18 17 12 13 20 23 19 17 18 18 18 19 20 21 21 21 20 20 20 19 19 19 19 20 22 23 24 26 26 27 29 30 32 35 37 40 41 43 44 45 44 42 41 42 43 43 44 46 48 48 47 45 43 42 42 43 43 44 45 45 44 43 43 41 40 42 44 45 46 48 49 52 55 56 54 52 52 53 52
Wind_Direction
179 189 193 210 230 232 223 216 233 256 298 301 280 268 270 277 276 272 277 278 267 279 271 265 276 286 287 283 279 274 272 271 270 271 277 281 277 275 281 299 340 336 329 337 347 1 13 15 21 17 7 356 342 314 284 273 269 268 265 262 260 260 258 255 254 252 251 249 247 245 244 244 244 244 243 243 243 243 244 243 243 243 242 241 240 239
189 218 212 223 239 248 244 233 247 265 277 268 262 274 271 267 274 270 275 283 279 278 272 262 277 286 289 286 276 269 267 267 270 276 278 273 271 278 319 18 352 335 342 15 45 52 48 44 43 40 39 35 27 13 332 292 274 268 265 263 262 262 260 259 258 257 256 255 253 253 251 250 247 246 245 244 244 244 244 244 243 242 242 241 239 238
206 230 226 232 239 267 355 241 246 252 256 262 258 268 271 268 279 273 260 274 303 273 285 293 290 289 282 274 273 272 264 261 265 263 262 264 276 310 359 355 335 344 26 66 62 55 52 47 44 45 45 43 38 30 15 346 302 278 269 267 267 267 265 264 263 261 261 260 259 258 256 255 252 251 250 248 248 247 247 246 245 243 242 241 239 238
230 229 231 239 237 217 245 224 223 258 252 247 247 259 272 268 274 272 242 257 2 267 286 303 294 283 272 259 265 272 249 254 264 258 258 271 316 343 348 354 358 42 73 67 55 55 53 46 41 39 39 40 41 36 26 12 346 310 287 277 272 271 270 269 266 264 263 261 259 258 257 256 254 253 253 252 252 251 250 249 247 246 244 243 241 239
249 236 179 239 220 220 241 230 220 254 256 242 236 244 263 264 261 266 279 329 308 270 285 313 297 283 278 228 109 263 224 264 270 261 261 38 43 39 43 56 74 81 71 57 51 53 51 46 43 38 37 37 38 37 31 21 8 346 315 292 280 276 276 276 274 270 266 262 260 258 255 254 253 252 252 252 251 251 251 250 249 248 246 245 243 241
258 269 142 186 181 205 226 235 225 231 260 261 228 227 250 266 272 274 292 323 307 271 58 346 316 301 91 31 337 321 314 280 265 253 86 74 60 63 73 82 85 77 64 54 51 51 49 48 46 42 39 37 37 36 33 28 20 8 348 320 296 285 281 282 284 281 275 268 263 259 256 254 254 254 254 254 254 254 254 254 253 252 250 248 245 243
259 265 175 206 194 177 204 246 229 207 252 272 240 232 249 263 273 278 297 306 292 293 34 21 306 283 273 258 282 300 272 259 262 257 86 83 68 74 88 91 81 67 58 53 51 51 48 49 50 47 44 40 38 35 32 31 27 21 10 356 335 312 297 288 285 285 284 280 273 268 264 262 261 261 261 262 262 262 262 260 259 258 255 252 249 246
196 146 89 163 186 183 211 246 214 183 229 268 20 340 263 267 275 278 294 270 277 314 295 183 226 272 285 249 224 246 240 254 274 356 73 87 89 85 86 81 68 57 54 51 51 50 48 49 50 50 49 44 40 34 30 29 28 26 20 12 4 352 335 313 294 284 284 284 282 280 276 271 269 267 266 266 266 265 265 264 263 261 259 256 252 248
158 175 176 169 175 207 216 223 165 176 218 280 64 33 67 317 306 288 280 270 286 314 284 179 173 263 282 231 165 235 244 266 312 42 63 79 93 90 82 74 62 53 53 53 52 51 50 52 50 49 47 42 38 33 29 27 26 26 24 18 13 8 4 353 330 308 295 287 284 283 279 275 274 271 268 267 267 266 264 264 263 262 261 259 256 253
140 179 205 176 191 229 214 152 157 183 205 149 136 107 95 103 53 65 282 295 295 286 265 175 170 254 288 227 153 215 264 297 36 71 79 82 80 80 77 67 55 51 57 59 57 56 54 52 50 48 43 37 33 31 28 26 23 23 23 21 16 11 9 13 8 346 325 307 294 287 282 279 277 275 273 271 270 268 266 265 264 264 263 262 261 258
125 78 355 212 231 244 110 70 10 186 152 124 154 136 121 159 93 125 267 329 285 271 248 179 183 223 278 307 157 190 321 197 92 84 103 102 72 68 68 54 47 56 64 63 60 57 53 49 46 42 39 37 33 28 26 24 22 19 19 20 19 15 8 6 15 13 350 327 309 297 292 289 284 279 277 275 273 271 271 270 269 268 267 266 265 262
176 185 226 235 237 203 108 104 29 37 55 156 193 299 281 236 122 224 188 122 255 266 282 160 191 221 237 252 59 332 313 234 204 349 84 99 76 64 60 52 58 66 64 60 55 51 48 45 41 36 34 33 29 27 25 23 22 19 17 18 18 17 13 7 1 1 357 338 317 302 294 292 287 282 280 278 276 275 275 274 273 273 272 271 269 266
193 201 199 269 237 194 179 176 101 81 153 205 206 189 285 308 350 264 232 204 246 261 5 5 331 242 241 254 269 276 294 306 103 23 48 80 78 68 64 63 66 64 59 55 50 47 46 44 41 38 35 33 30 29 27 24 22 20 18 17 16 17 18 14 7 359 348 334 319 304 293 289 285 282 281 280 278 277 277 276 275 276 276 276 274 273
260 216 150 184 243 190 189 200 199 192 176 185 189 169 180 210 241 254 247 251 262 260 54 15 261 254 267 262 244 260 290 1 57 50 65 81 80 73 72 70 66 62 59 57 53 51 49 46 44 42 39 38 36 34 31 28 26 22 21 19 18 19 19 17 15 8 356 340 324 310 301 293 287 284 282 281 279 279 280 280 279 279 279 279 279 279
267 284 176 177 174 164 188 214 196 118 163 186 180 170 196 202 219 246 236 241 268 272 140 111 212 257 284 312 182 257 296 28 63 67 81 84 77 74 74 70 66 63 62 61 58 55 51 48 45 43 41 40 38 36 33 31 29 26 25 22 20 19 17 15 15 14 10 357 341 323 312 304 295 289 284 282 282 281 282 284 284 284 282 281 280 281
246 267 178 136 104 162 184 204 124 115 171 190 123 174 230 216 202 236 251 233 305 307 254 199 241 263 279 296 280 271 284 91 89 81 81 79 72 71 69 64 62 63 63 62 59 56 53 50 47 44 43 40 37 36 33 31 29 26 25 23 21 19 17 15 15 16 17 12 3 350 334 319 304 295 288 284 283 283 284 285 286 286 284 283 282 281
248 264 115 87 278 201 193 166 155 193 185 137 170 200 226 205 184 236 267 148 91 278 253 226 264 273 281 290 285 136 101 98 95 83 81 81 73 69 62 56 59 61 62 61 59 57 55 53 50 48 45 43 41 38 35 33 30 27 24 21 19 18 17 17 16 16 15 14 12 7 359 344 319 301 292 288 285 284 283 284 284 285 285 284 284 283
252 271 204 159 212 230 225 218 239 281 129 138 194 212 107 30 223 232 255 161 195 244 240 220 251 270 285 288 121 114 110 104 97 89 86 82 74 70 62 54 57 60 61 60 58 57 56 54 53 51 48 45 41 37 34 31 28 26 24 21 18 17 17 17 15 12 11 10 11 11 10 4 350 328 308 296 288 283 281 282 283 284 284 284 285 284
261 272 256 189 206 170 118 220 233 223 210 155 301 313 69 246 236 200 212 233 232 244 241 213 233 253 254 247 228 147 132 116 101 92 78 63 62 66 63 55 55 60 60 58 57 54 53 51 49 48 45 41 38 35 33 30 27 24 21 19 17 13 12 12 10 9 10 9 11 11 11 10 6 357 343 325 308 296 289 285 285 284 285 285 285 285
75 257 267 81 120 102 116 211 210 188 196 29 323 290 289 259 254 224 202 224 237 249 254 233 230 234 229 245 262 234 120 109 102 96 83 71 67 66 69 62 57 60 59 56 56 54 50 47 43 41 39 36 35 33 30 28 26 24 20 17 15 11 7 3 2 4 7 9 11 10 8 9 7 5 1 352 340 326 313 303 296 291 288 285 284 283
15 259 263 336 34 190 190 207 205 201 195 188 220 230 216 213 281 281 251 213 237 253 255 249 243 231 238 271 231 114 93 81 96 101 95 85 79 73 74 75 69 66 63 59 56 50 46 42 37 34 32 30 29 28 26 25 23 22 20 17 16 14 11 8 4 2 2 4 8 8 8 7 5 3 2 360 356 350 341 328 313 300 289 283 280 278
267 260 252 256 247 243 244 206 191 232 225 203 220 218 215 208 201 250 243 211 225 244 237 250 252 226 225 46 100 108 88 83 96 102 102 97 94 88 81 80 77 70 64 60 53 47 42 36 31 27 24 22 22 21 21 20 18 16 16 16 16 15 14 14 13 8 3 0 0 2 5 4 2 359 357 357 357 355 351 345 335 320 302 290 282 277
335 258 248 253 244 254 269 276 121 230 273 271 248 228 228 221 203 231 246 226 229 238 229 254 256 234 80 75 98 105 107 114 116 118 124 125 126 124 109 87 77 68 60 52 44 40 35 30 26 21 18 16 14 13 12 11 11 10 9 10 11 11 11 10 9 8 6 2 357 355 355 355 354 353 350 350 351 352 350 348 345 339 327 314 301 289
12 255 255 261 252 261 269 254 137 123 205 258 256 239 242 247 241 255 272 290 268 244 241 252 248 235 64 88 113 117 120 122 124 132 135 135 137 138 125 94 74 64 56 46 38 32 26 23 21 17 14 11 6 3 2 1 2 2 2 2 1 2 3 2 1 1 360 359 358 355 351 348 346 345 345 345 346 348 347 345 344 343 340 333 323 310
314 279 299 287 274 268 263 252 218 100 75 281 282 293 285 277 280 278 267 266 252 229 234 250 253 244 191 122 121 123 127 124 122 131 132 133 138 132 110 88 71 59 51 41 33 27 22 17 14 9 5 2 358 356 354 352 352 352 353 353 353 354 355 355 356 355 354 353 353 353 352 349 345 342 343 344 344 343 342 342 341 341 341 340 336 329
279 269 287 284 276 272 275 275 258 96 7 316 291 301 316 315 303 291 272 258 250 228 228 247 263 264 203 141 142 140 135 132 137 139 128 123 122 108 93 77 63 55 45 34 26 21 16 9 5 2 358 356 353 350 347 344 342 341 341 342 343 344 345 346 347 348 349 350 349 349 349 348 348 345 343 342 342 341 339 337 336 336 337 338 339 338
223 234 224 246 263 270 279 282 275 279 283 278 277 280 289 290 286 291 280 263 275 288 264 263 282 288 281 275 274 275 280 241 154 142 132 127 121 106 87 62 50 43 33 29 25 18 12 7 4 360 356 354 350 346 343 340 338 337 336 335 334 334 334 336 338 341 343 346 347 347 345 345 346 346 344 342 339 337 334 332 330 331 331 332 333 334
222 258 241 246 257 262 272 278 279 279 269 270 279 275 270 272 269 265 258 261 285 296 276 274 283 280 278 280 278 279 283 276 142 131 141 142 141 128 74 43 33 22 18 21 18 14 12 8 4 1 358 354 349 345 341 337 335 335 335 336 335 333 332 332 332 334 336 339 342 343 344 344 343 342 342 341 338 334 330 328 326 326 326 326 327 328
236 266 259 265 274 272 277 284 284 280 273 273 275 271 269 269 263 259 259 266 275 272 270 283 283 277 276 276 276 284 308 100 113 123 146 152 174 205 264 316 328 343 347 351 354 357 359 357 356 357 356 353 347 342 338 334 332 331 331 332 331 332 334 334 333 333 333 333 335 337 338 340 340 340 338 337 336 334 331 328 326 324 321 320 320 322
236 262 264 289 293 284 284 289 289 286 283 277 270 270 272 268 264 267 270 270 267 263 267 275 274 272 273 275 279 338 79 99 107 114 158 217 239 242 253 265 274 299 312 319 327 331 333 337 342 343 343 342 339 336 335 333 333 333 332 331 329 329 329 329 330 331 331 332 333 334 334 335 336 337 337 335 334 333 332 331 328 326 323 320 317 317
282 276 311 354 306 285 284 289 290 288 284 279 273 268 267 265 266 269 271 269 265 263 265 265 264 266 272 305 65 88 92 100 112 139 237 251 257 256 260 265 265 272 284 292 300 309 318 324 328 329 328 329 328 326 327 328 329 332 332 331 330 328 327 326 325 325 325 326 328 329 330 331 332 333 334 334 333 331 331 330 329 328 326 324 321 318
300 289 325 333 290 272 277 284 287 292 287 274 264 257 256 257 258 258 256 257 259 263 264 263 264 267 294 77 93 104 92 89 179 263 264 264 268 265 265 268 268 271 283 293 300 308 318 323 324 324 322 322 323 323 323 324 325 326 327 326 324 323 323 323 321 320 320 319 320 320 322 323 324 326 328 329 330 329 328 328 327 327 326 324 323 322
249 266 281 285 275 269 273 279 292 314 290 266 250 246 249 250 252 254 253 252 253 257 264 267 270 282 92 98 113 119 103 282 278 280 274 273 272 265 269 275 275 277 288 299 306 311 317 321 322 321 322 322 322 321 320 319 319 319 319 319 318 317 317 316 315 315 315 314 315 314 315 316 316 318 320 322 323 323 324 324 324 324 325 324 323 322
228 248 261 263 265 269 276 293 325 277 261 263 271 261 259 263 264 262 262 261 257 256 268 291 297 119 130 128 117 118 251 290 301 303 300 300 292 280 282 286 284 281 282 288 299 307 314 319 320 320 321 321 321 320 319 317 315 313 312 312 311 310 310 309 309 308 308 308 308 309 310 311 312 313 314 315 316 317 318 319 320 321 322 322 321 321
239 243 253 258 261 269 279 297 274 256 250 286 340 293 255 283 277 267 268 268 266 265 123 183 174 155 154 142 127 215 270 284 291 297 307 311 304 294 292 289 286 282 278 281 291 302 311 317 320 321 322 321 320 318 316 316 314 311 309 308 307 307 305 304 302 301 301 301 301 302 305 307 308 309 310 310 311 312 312 313 314 316 318 318 319 319
240 243 249 251 250 261 252 229 244 268 325 306 285 265 171 222 247 256 268 268 255 222 219 210 174 156 169 190 229 259 272 274 271 280 297 308 309 303 297 290 286 283 281 284 290 297 305 309 311 316 318 318 318 317 315 315 312 310 308 308 307 307 306 304 302 301 301 300 299 299 300 302 303 304 305 305 306 306 307 308 309 310 312 313 313 314
232 242 249 248 239 241 244 236 250 299 316 291 280 273 165 236 247 252 279 277 181 171 211 191 164 167 192 251 275 278 279 278 274 282 294 305 312 312 304 293 286 282 280 283 288 293 298 300 302 305 308 310 312 314 314 313 310 307 307 307 307 307 307 306 305 305 305 304 302 300 299 299 299 299 299 300 301 301 302 302 303 305 307 308 308 309
229 234 232 242 245 238 249 253 259 276 278 275 286 268 224 252 260 231 289 296 137 161 184 154 163 212 253 286 286 281 277 277 278 288 298 306 312 315 311 301 291 283 277 278 282 288 294 298 298 298 300 302 305 308 310 310 308 306 305 306 306 306 305 304 305 307 307 305 304 302 300 298 297 295 295 294 295 296 296 297 298 299 301 303 304 304
221 230 225 238 251 241 247 254 249 256 264 232 228 241 206 202 182 185 289 301 72 184 191 159 186 241 247 270 275 264 248 274 278 294 305 309 312 315 315 312 307 298 286 279 278 283 291 296 295 293 294 295 298 301 304 304 304 304 304 304 304 303 302 302 303 305 305 304 303 301 299 298 296 294 293 292 291 291 291 292 293 294 295 297 298 299
151 217 216 225 239 238 243 250 248 257 278 282 264 262 214 172 166 273 283 282 176 213 213 199 241 269 267 269 269 237 231 268 285 298 303 304 305 309 313 315 314 310 300 290 282 279 282 286 286 287 289 290 293 296 298 300 302 301 301 302 302 300 300 301 303 304 303 302 300 299 297 297 296 294 293 292 291 289 288 288 289 289 290 291 292 294
141 213 220 222 233 237 240 249 256 260 263 258 261 258 193 136 194 261 273 282 167 221 236 231 251 276 282 275 267 252 259 274 285 293 296 296 298 304 310 311 310 309 307 302 292 281 278 281 283 284 285 287 290 292 295 299 300 300 301 302 300 299 300 302 303 302 301 299 298 296 295 295 294 294 293 292 291 290 288 287 286 286 287 287 288 289
182 146 231 227 229 236 241 251 262 266 251 231 244 235 159 175 255 254 295 333 288 267 276 264 257 269 275 268 268 273 278 285 290 291 293 294 297 303 309 310 309 307 306 305 299 289 283 284 285 285 285 287 290 293 297 301 302 302 303 302 300 300 302 302 301 299 298 297 296 295 294 294 293 293 292 291 290 289 288 287 286 285 285 285 285 286
211 218 247 227 210 230 248 246 251 270 266 186 196 164 157 201 279 313 315 309 300 293 290 271 264 274 274 268 274 283 287 292 294 294 295 297 300 305 307 307 306 304 303 303 300 295 291 289 288 289 290 292 295 298 302 305 304 304 303 302 301 302 301 299 297 296 295 294 293 293 293 292 292 291 290 289 288 287 286 285 285 284 284 284 285 285
212 226 253 237 187 216 247 241 227 245 195 148 154 235 244 253 283 295 293 292 296 297 295 285 287 294 293 287 287 290 291 291 292 293 296 298 300 302 302 301 302 302 301 300 299 297 296 296 295 295 294 295 298 302 304 305 305 303 302 302 301 301 298 296 295 294 292 291 290 290 290 289 289 288 287 287 287 286 285 285 284 284 284 283 284 284
203 214 238 249 229 228 256 261 238 247 261 256 259 269 276 281 287 289 288 284 287 294 297 296 297 301 302 299 294 290 288 287 290 293 295 297 299 299 299 299 300 300 299 299 299 300 300 301 301 300 299 298 300 303 304 304 304 303 301 301 300 298 296 295 294 292 290 289 288 287 287 286 285 285 285 285 285 285 285 284 284 284 283 283 284 283
230 229 235 258 253 255 263 261 252 260 270 273 275 275 279 284 287 288 288 285 285 291 294 294 295 297 298 295 291 288 287 288 290 293 294 296 298 297 298 298 298 299 300 300 301 303 303 303 303 302 300 299 300 302 302 302 302 302 300 299 298 297 296 295 293 290 288 287 286 285 285 285 284 283 284 283 284 285 284 284 284 284 283 283 283 283
244 238 230 245 254 259 265 257 247 253 263 267 272 276 277 279 280 282 283 284 286 289 290 291 292 291 290 289 287 287 289 290 292 294 295 297 297 299 301 302 302 303 304 304 305 305 304 304 303 302 302 302 302 302 301 300 301 301 300 298 296 295 294 292 291 289 288 287 286 285 285 285 285 285 285 285 285 286 285 285 285 285 284 283 283 282
238 222 215 233 244 244 253 260 260 260 264 265 267 271 274 275 277 279 280 281 283 286 287 289 289 287 287 289 289 290 293 294 294 296 297 298 301 303 304 305 305 306 306 306 306 305 304 304 304 303 303 302 302 301 301 301 301 301 300 299 298 297 296 294 292 290 289 288 287 286 286 287 287 287 287 287 287 287 286 285 285 285 284 282 282 282
227 190 183 213 242 246 251 260 264 265 268 266 262 263 268 272 275 276 277 278 279 281 283 283 284 285 287 290 292 293 294 295 296 298 299 301 304 305 306 306 306 306 306 306 306 306 306 306 305 304 303 302 303 304 304 304 304 305 305 306 305 304 301 298 296 294 291 291 290 290 290 290 290 290 290 290 288 287 287 286 286 286 284 283 282 282
223 227 202 197 245 255 249 248 248 253 268 270 265 264 267 270 271 271 273 275 275 275 277 277 281 286 289 291 293 294 294 297 299 300 301 302 304 305 306 306 306 306 307 308 308 308 308 307 307 307 306 307 309 310 310 311 312 313 314 314 314 312 308 305 302 299 296 295 295 294 294 293 292 292 293 293 292 291 290 288 288 288 287 285 285 284
219 233 231 224 242 252 253 249 240 235 255 268 273 277 277 273 271 270 271 273 273 273 276 278 281 285 288 290 292 294 296 298 300 300 301 302 303 305 306 307 308 309 309 310 310 310 309 310 311 312 312 314 317 318 319 318 318 319 319 318 317 315 312 310 307 302 298 297 296 295 294 293 292 293 293 293 293 293 293 292 292 291 289 288 288 288